{"data":{"norad_id":58088,"epoch":"2026-09-20T16:48:10.693728Z","epoch_age_seconds":123219,"freshness":"FRESH","line1":"1 58088U 23160P   26263.70012377  .00000064  00000+0  11853-4 0  9998","line2":"2 58088  43.0033  56.2662 0001705 272.1311  87.9346 15.27575748162772","mean_motion":15.27575748,"eccentricity":0.0001705,"inclination_deg":43.0033,"raan_deg":56.2662,"arg_perigee_deg":272.1311,"mean_anomaly_deg":87.9346,"bstar":1.1853e-5,"rev_number":16277,"period_min":94.267011104709,"perigee_km":481.89199368665,"apogee_km":484.23166248703,"semimajor_km":6861.1988280868,"source":"CELESTRAK","updated_at":"2026-09-21T09:00:33.784008Z"}}